Flag for U.S.A. Weather past 2 weeks in Cheyenne, Wyoming, U.S.A.

Now
50 °F

Overcast.


Feels Like: 48 °F
Forecast: 46 / 64 °F
Wind: 6 mph from North

Location: Cheyenne Airport

Current Time: Oct 22, 2014 at 6:31:01 AM

Latest Report: Oct 22, 2014 at 5:53 AM


Visibility: 10 mi

Pressure: 29.88 "Hg

Humidity: 59%

Dew point: 36 °F

Location of CheyenneLocation

Historic Weather in Cheyenne — Graph

°F

Cheyenne temperature yesterday

Maximum temperature yesterday: 70 °F (at 10:53 AM)
Minimum temperature yesterday: 41 °F (at 12:53 AM)
Average temperature yesterday: 57 °F

Past Weeks' High & Low Weather Summary

 TemperatureHumidityPressure
High74 °F (Oct 7, 2:53 PM)100% (Oct 10, 7:53 AM)30.26 "Hg (Oct 10, 7:53 AM)
Low32 °F (Oct 18, 6:53 AM)12% (Oct 15, 2:53 PM)29.54 "Hg (Oct 12, 3:53 AM)
Average52 °F52%29.96 "Hg
* Reported Oct 7 4:53 AM — Oct 22 4:53 AM, Cheyenne, Weather by CustomWeather, © 2014

Note: Actual official high and low records may vary slightly from our data, if they occured in-between our weather recording intervals... More about our weather records

Advertising

Cheyenne weather history for previous 24 hours

 ConditionsComfort  
Time TempWeatherWind HumidityBarometerVisibility
4:53 AM
Oct 22
47 °FPassing clouds.6 mph66%29.88 "Hg10 mi
3:53 AM48 °FPassing clouds.No wind63%29.84 "Hg10 mi
2:53 AM48 °FOvercast.7 mph74%29.83 "Hg10 mi
1:53 AM49 °FPassing clouds.3 mph74%29.83 "Hg10 mi
12:53 AM50 °FLight rain. Overcast.3 mph71%29.83 "Hg8 mi
11:53 PM
Oct 21
52 °FRain. Overcast.6 mph64%29.84 "Hg7 mi
10:53 PM53 °FOvercast.5 mph66%29.80 "Hg10 mi
9:53 PM55 °FLight rain. Overcast.13 mph59%29.78 "Hg10 mi
8:53 PM58 °FMostly cloudy.10 mph51%29.79 "Hg10 mi
7:53 PM58 °FPassing clouds.7 mph44%29.82 "Hg10 mi
6:53 PM60 °FOvercast.10 mph42%29.81 "Hg10 mi
5:53 PM61 °FPartly sunny.14 mph41%29.81 "Hg10 mi
4:53 PM63 °FLight rain. Cloudy.23 mph41%29.80 "Hg8 mi
3:53 PM65 °FScattered clouds.17 mph34%29.80 "Hg10 mi
2:53 PM70 °FPartly sunny.12 mph27%29.78 "Hg10 mi
1:53 PM70 °FPassing clouds.14 mph25%29.80 "Hg10 mi
12:53 PM70 °FPartly sunny.N/A28%29.83 "Hg10 mi
11:53 AM70 °FPartly sunny.21 mph26%29.84 "Hg10 mi
10:53 AM70 °FScattered clouds.18 mph29%29.85 "Hg10 mi
9:53 AM67 °FPassing clouds.16 mph33%29.86 "Hg10 mi
8:53 AM60 °FScattered clouds.8 mph42%29.87 "Hg10 mi
7:53 AM48 °FOvercast.3 mph63%29.91 "Hg10 mi
6:53 AM47 °FOvercast.5 mph64%29.89 "Hg10 mi
Weather by CustomWeather, © 2014

See weather overviewHow to use our weather pages